Airfield :
LOGIN :

Register | Disclaimer

   EN    FR    IT 

 










Legend :    VFR   Marginal VFR   IFR   Intensive IFR   Very Intensive IFR
Visi :
Ceiling :
>= 8 km
>= 3000ft
5 to 8 km
1000 to 3000 ft
1500m to 5 km
500 to 1000 ft
800 to 1500m
200 to 500 ft
< 800m
< 200 ft
Symbols :   Thunderstorms  Fog  Heavy snow  Heavy precipitations  Wind > 20 kt
SIGMETs :     Misc.  Thunderstorms  Icing  Turbulence  Mountain Waves  Volcanic Ashes






- Airport Elevation : 46 ft
- IATA code : PAF


LPMT - Montijo Air Base

CURRENT METAR :
  • 131100Z 36005KT 310V060 CAVOK 33/16 Q1017

EXPIRED METARs :
  • 131000Z 28005KT 250V310 CAVOK 28/19 Q1017
  • 130900Z 30003KT 260V340 CAVOK 27/19 Q1017
  • 130800Z VRB02KT CAVOK 24/18 Q1017

TAF TAF LPMT
Valid from the 13 at 06:00 until the 14 at 06:00 UTC


130502Z 1306/1406 VRB02KT CAVOK
BECMG 1312/1314 34012KT
TEMPO 1315/1318 34015G25KT



MET'MAP, your aeronautical weather chart ! - Copyright ORBIFLY December 2007 - Disclaimer

ORBIFLY MET'MAP TEAM :

Programming & Development : Alexandra Zaïnal
Concept & original design : Baudouin d'Aumeries
Assistance for programming : Marc-Olivier Méhu
Technical & hardware support : Manuel Goepfert

Contact : metmap@orbifly.com




SOURCES & CREDITS :

   NOAA